Mayer, MN (55360)

8:34 PM CDT on August 21, 2014 (GMT -0500)
Mayer, MN | Change Station
CLOSE
Current Station
Personal Weather Station
Location: Mayer, MN
Elevation: 977 ft
Nearby Weather Stations

Elev 977 ft 44.89 °N, 93.90 °W | Updated 5 seconds ago

Clear
Clear
78.6 °F
Feels Like 81 °F
N
2.2
Wind Variable Wind from West
Gusts 3.8 mph

Today
High -- | Low -- °F
--% Chance of Precip.
Yesterday
High -- | Low -- °F
Precip. -- in
6:24 AM 8:11 PM
Waning Crescent, 11% visible
Pressure 29.82 in
Visibility 10.0 miles
Clouds Clear
Heat Index 81 °F
Dew Point 70 °F
Humidity 76%
Rainfall 0.02 in
Snow Depth Not available.
UV 0 out of 12
Pollen 3.30 out of 12
Ozone Good
PM2.5 Good
Flu Activity Not available.
METAR KGYL 220114Z AUTO 01003KT 10SM CLR 26/22 A2982 RMK AO2 LTG DSNT S T02580223

More Conditions Fewer Conditions

Pressure 29.82 in
Visibility 10.0 miles
Clouds Clear
Heat Index 81 °F
Dew Point 70 °F
Humidity 76%
Rainfall 0.02 in
Snow Depth Not available.
UV 0 out of 12
Pollen 3.30 out of 12
Ozone Good
PM2.5 Good
Flu Activity Not available.
METAR KGYL 220114Z AUTO 01003KT 10SM CLR 26/22 A2982 RMK AO2 LTG DSNT S T02580223

More Conditions Fewer Conditions

10-Day Weather Forecast

Almanac

Astronomy

Aug. 21, 2014 Rise Set
Actual Time 6:24 AM CDT 8:11 PM CDT
Civil Twilight 5:53 AM CDT 8:42 PM CDT
Nautical Twilight 5:15 AM CDT 9:20 PM CDT
Astronomical Twilight 4:33 AM CDT 10:02 PM CDT
Moon 2:51 AM CDT (8/21) 5:44 PM CDT (8/21)
Length of Visible Light 14h 49m
Length of Day
13h 47m
Tomorrow will be 2m 54s shorter.
Waning Crescent, 11% of the Moon is Illuminated
Today
Waning Crescent
Aug 25
New
Sep 2
First Quarter
Sep 8
Full
Sep 15
Last Quarter

Today's Extremes

State Highs State Lows

Community

WunderPhotos

Upload Photos

1,746,102 photos uploaded!

Nearby

Air Quality

  Air Quality AQ Index Pollutant
Yesterday Good
OZONE
Yesterday Good
PM2.5
Current Good
PM2.5
Current Good
OZONE
Thursday Good
OZONE
Thursday Good
PM2.5
Friday Moderate
OZONE
Friday Good
PM2.5
Saturday Good
OZONE
Saturday Good
PM2.5
Sunday Good
OZONE
Sunday Good
PM2.5
Monday Good
OZONE
Monday Good
PM2.5
Tuesday Good
OZONE
Tuesday Good
PM2.5

Snow Depth

Station Depth Elevation
No new snow has been reported.

Earthquake Activity

City Distance Mag. Time & Date
No recent earthquake activity has been reported nearby.
Minimum magnitude displayed is 2.5.

Coastal Water Temperatures

Place Temperature
No Stations Reporting

Nearby Weather Stations